TimeCST,TemperatureF,Dew PointF,Humidity,Sea Level PressureIn,VisibilityMPH,Wind Direction,Wind SpeedMPH,Gust SpeedMPH,PrecipitationIn,Events,Conditions,WindDirDegrees,DateUTC
12:53 AM,21.9,12.0,66,30.29,10.0,East,4.6,-,N/A,,Overcast,100,2013-12-08 06:53:00
1:48 AM,23.0,10.4,59,30.25,9.0,Calm,Calm,-,N/A,Snow,Light Snow,0,2013-12-08 07:48:00
1:53 AM,23.0,10.9,60,30.27,9.0,ENE,3.5,-,0.00,Snow,Light Snow,70,2013-12-08 07:53:00
2:53 AM,21.9,12.9,68,30.26,4.0,Calm,Calm,-,0.00,Snow,Light Snow,0,2013-12-08 08:53:00
3:53 AM,21.0,15.1,78,30.23,8.0,East,3.5,-,0.00,,Overcast,100,2013-12-08 09:53:00
4:12 AM,21.0,16.0,81,30.20,9.0,East,4.6,-,N/A,,Overcast,100,2013-12-08 10:12:00
4:53 AM,21.0,17.1,85,30.21,5.0,East,4.6,-,N/A,,Overcast,100,2013-12-08 10:53:00
5:11 AM,21.0,17.1,85,30.18,2.5,East,4.6,-,0.00,,Light Freezing Drizzle,90,2013-12-08 11:11:00
5:48 AM,21.2,19.4,93,30.16,3.0,ESE,5.8,-,0.00,,Light Freezing Drizzle,120,2013-12-08 11:48:00
5:53 AM,21.0,19.0,92,30.19,3.0,SE,6.9,-,0.00,,Light Freezing Drizzle,130,2013-12-08 11:53:00
6:09 AM,21.9,19.0,89,30.16,3.0,ESE,6.9,-,0.00,,Light Freezing Drizzle,110,2013-12-08 12:09:00
6:53 AM,21.9,19.9,92,30.17,3.0,ESE,5.8,-,0.00,,Light Freezing Drizzle,120,2013-12-08 12:53:00
7:06 AM,23.0,19.9,88,30.16,2.5,SSE,5.8,-,N/A,,Light Freezing Drizzle,150,2013-12-08 13:06:00
7:14 AM,23.0,21.0,92,30.15,4.0,SE,8.1,-,N/A,,Light Freezing Drizzle,140,2013-12-08 13:14:00
7:25 AM,24.1,21.0,88,30.15,7.0,SE,8.1,-,N/A,,Overcast,140,2013-12-08 13:25:00
7:31 AM,24.1,19.9,84,30.15,3.0,SSE,9.2,-,N/A,,Overcast,150,2013-12-08 13:31:00
7:53 AM,24.1,21.0,88,30.18,3.0,SSE,9.2,-,N/A,,Overcast,160,2013-12-08 13:53:00
8:15 AM,24.1,21.0,88,30.15,1.5,SSE,8.1,-,N/A,,Overcast,150,2013-12-08 14:15:00
8:32 AM,24.1,21.0,88,30.16,0.8,SSE,9.2,-,N/A,,Light Freezing Drizzle,150,2013-12-08 14:32:00
8:38 AM,24.1,21.0,88,30.15,0.8,SSE,8.1,-,N/A,,Light Freezing Drizzle,160,2013-12-08 14:38:00
8:44 AM,24.1,21.9,91,30.15,0.8,SSE,9.2,-,N/A,,Light Freezing Drizzle,160,2013-12-08 14:44:00
8:53 AM,24.1,21.9,91,30.17,0.8,SSE,9.2,-,N/A,,Light Freezing Drizzle,160,2013-12-08 14:53:00
9:31 AM,25.0,21.9,88,30.15,0.8,SSE,6.9,-,N/A,,Overcast,160,2013-12-08 15:31:00
9:44 AM,25.0,21.9,88,30.14,0.8,SE,9.2,-,N/A,,Overcast,140,2013-12-08 15:44:00
9:53 AM,25.0,21.9,88,30.16,1.5,SSE,9.2,-,N/A,,Overcast,150,2013-12-08 15:53:00
10:53 AM,26.1,23.0,88,30.13,2.5,SSE,11.5,-,N/A,,Overcast,160,2013-12-08 16:53:00
11:35 AM,27.0,24.1,89,30.08,3.0,South,9.2,-,N/A,,Overcast,180,2013-12-08 17:35:00
11:53 AM,27.0,24.1,89,30.10,3.0,South,10.4,-,N/A,,Overcast,170,2013-12-08 17:53:00
12:53 PM,28.0,25.0,88,30.05,3.0,South,10.4,-,N/A,,Overcast,170,2013-12-08 18:53:00
1:53 PM,30.0,25.0,82,30.04,3.0,SSW,5.8,-,N/A,,Overcast,210,2013-12-08 19:53:00
2:46 PM,30.0,25.0,82,30.01,10.0,South,10.4,-,N/A,,Overcast,190,2013-12-08 20:46:00
2:53 PM,30.0,25.0,82,30.04,10.0,South,8.1,-,N/A,,Overcast,190,2013-12-08 20:53:00
3:53 PM,30.0,24.1,79,30.04,10.0,SSW,11.5,-,N/A,,Overcast,200,2013-12-08 21:53:00
4:53 PM,30.0,23.0,75,30.08,10.0,WSW,11.5,-,N/A,,Overcast,250,2013-12-08 22:53:00
5:53 PM,28.9,23.0,78,30.10,10.0,West,6.9,-,N/A,,Overcast,270,2013-12-08 23:53:00
6:35 PM,30.0,23.0,75,30.11,10.0,West,6.9,-,N/A,,Overcast,270,2013-12-09 00:35:00
6:53 PM,30.0,23.0,75,30.14,10.0,West,6.9,-,N/A,,Overcast,280,2013-12-09 00:53:00
7:53 PM,28.9,23.0,78,30.16,10.0,West,4.6,-,N/A,,Overcast,270,2013-12-09 01:53:00
8:53 PM,28.9,21.9,75,30.19,10.0,West,6.9,-,N/A,,Overcast,280,2013-12-09 02:53:00
9:53 PM,28.0,21.0,75,30.22,10.0,NW,9.2,-,N/A,,Overcast,310,2013-12-09 03:53:00
10:13 PM,28.0,21.0,75,30.20,10.0,NW,6.9,-,N/A,,Overcast,320,2013-12-09 04:13:00
10:53 PM,27.0,21.0,78,30.24,10.0,NW,4.6,-,N/A,,Overcast,310,2013-12-09 04:53:00
11:33 PM,28.0,19.9,72,30.23,10.0,NW,5.8,-,N/A,,Overcast,310,2013-12-09 05:33:00
11:53 PM,27.0,21.0,78,30.25,10.0,NW,4.6,-,N/A,,Overcast,310,2013-12-09 05:53:00